Regional Weather Roundup
Issued by NWS

Home | Current Version | Previous Version | Text Only | Print | Product List | Glossary On
Versions: 1 2 3 4 5 6 7 8 9 10 11 12 13 14 15 16 17 18 19 20 21 22 23 24 25 26 27 28 29 30 31 32 33 34 35 36 37 38 39 40 41 42 43 44 45 46 47 48 49 50
000
ASUS44 KLIX 230513
RWRLA
LOUISIANA WEATHER ROUNDUP
NATIONAL WEATHER SERVICE NEW ORLEANS LA
1100 PM CST WED FEB 22 2017

NOTE: "FAIR" INDICATES FEW OR NO CLOUDS BELOW 12,000 FEET WITH NO
      SIGNIFICANT WEATHER AND/OR OBSTRUCTIONS TO VISIBILITY.
      SKY/WX - SKY CONDITION AND SIGNIFICANT WEATHER.
      TMP - AIR TEMPERATURE.    DP   - DEWPOINT TEMPERATURE.
      RH  - RELATIVE HUMIDITY.  PRES - PRESSURE.
      HX  - HEAT INDEX.         WCI  - WIND CHILL INDEX.

*  THESE STATIONS ARE NOT NWS OR FAA STATIONS AND ARE NOT UNDER
   NWS QUALITY CONTROL.

LAZ040-048-061>063-065-066-069-230600-
SOUTHEAST LOUISIANA

CITY           SKY/WX    TMP DP  RH WIND       PRES   REMARKS
N.O. AUDUBON   NOT AVBL
N.O. INTL ARPT CLEAR     63  56  78 CALM      29.84R
N.O. LAKEFRONT CLEAR     65  60  84 N3        29.84S
N.O. DOWNTOWN*   N/A     68  56  65 NE3       29.85R
RESERVE*       FAIR      64  59  85 CALM      29.85S
SLIDELL        CLEAR     55  52  89 CALM      29.84R
BATON ROUGE    CLEAR     58  55  90 CALM      29.85S
BOOTHVILLE     CLEAR     60  60 100 NW5       29.83S
BELLE CHASSE   CLEAR     56  54  93 CALM      29.84R
BOGALUSA*      FAIR      55  52  89 CALM      29.87R
GALLIANO*      CLEAR     56  53  88 CALM      29.84S
NEW ROADS*     FAIR      56  56  97 CALM      29.85F
GONZALES*      FAIR      59  56  92 CALM      29.84F
HAMMOND*       CLEAR     55  52  88 CALM      29.84S
HOUMA*         CLEAR     61  57  87 CALM      29.84S
PORT FOURCHON* CLEAR     66  61  82 SW3       29.84R

$$

LAZ041-044-053-054-230600-
SOUTHWEST LOUISIANA

CITY           SKY/WX    TMP DP  RH WIND       PRES   REMARKS
LAKE CHARLES   CLEAR     58  58 100 CALM      29.84F FOG
LAFAYETTE      CLEAR     60  56  86 CALM      29.85S
PATTERSON      CLEAR     58  56  93 W3        29.86S
SALT POINT       N/A     63  61  93 CALM      29.84S
NEW IBERIA     CLEAR     59  53  80 CALM      29.86S
CHENAULT AIRPK FOG       56  56  99 CALM      29.85S VSB 1/4

$$

LAZ027-028-230600-
CENTRAL LOUISIANA

CITY           SKY/WX    TMP DP  RH WIND       PRES   REMARKS
FORT POLK      CLEAR     58  56  94 SE5       29.83F
ALEXANDRIA INT CLEAR     58  55  90 E3        29.82F
ALEXANDRIA     CLEAR     52  52 100 CALM      29.84F FOG

$$

LAZ001-002-230600-
NORTHWEST LOUISIANA

CITY           SKY/WX    TMP DP  RH WIND       PRES   REMARKS
SHREVEPORT     CLEAR     61  55  81 SE3       29.79F
BARKSDALE AFB  CLEAR     57  54  90 S7        29.79F
DTN SHREVEPORT CLEAR     61  54  77 SE7       29.79F

$$

LAZ014-016-230600-
NORTHEAST LOUISIANA

CITY           SKY/WX    TMP DP  RH WIND       PRES   REMARKS
MONROE         CLEAR     57  54  89 CALM      29.84F
TALLULAH       CLEAR     53  51  93 SW3       29.85S

$$




USA.gov is the U.S. government's official web portal to all federal, state and local government web resources and services.